Regional Weather Roundup
Issued by NWS

Home | Current Version | Previous Version | Text Only | Print | Product List | Glossary Off
Versions: 1 2 3 4 5 6 7 8 9 10 11 12 13 14 15 16 17 18 19 20 21 22 23 24 25 26 27 28 29 30 31 32 33 34 35 36 37 38 39 40 41 42 43 44 45 46 47 48 49 50

000
ASUS43 KDTX 121510
RWRMI
MICHIGAN HOURLY REGIONAL WEATHER ROUNDUP
NATIONAL WEATHER SERVICE DETROIT/PONTIAC MI
1000 AM EST FRI FEB 12 2016

NOTE: "FAIR" INDICATES FEW OR NO CLOUDS BELOW 12,000 FEET WITH NO
SIGNIFICANT WEATHER AND/OR OBSTRUCTION TO VISIBILITY.

MIZ047>049-052>055-059>063-066>070-074>076-081>083-121600-
SOUTHEAST LOWER MICHIGAN

CITY           SKY/WX    TMP DP  RH WIND       PRES   REMARKS
ADRIAN         CLOUDY    19   9  65 W13       30.06F WCI   6
ALMA           LGT SNOW  21  14  73 W12G18    30.00F WCI   9
ANN ARBOR      CLOUDY    18   9  68 SW13      30.03F WCI   5
BAD AXE        FLURRIES  18  13  80 W12       29.95F WCI   5
CARO           CLOUDY    18  10  73 SW9G17    29.97F WCI   6
DETROIT CITY   CLOUDY    19   8  62 SW16      30.03F WCI   4
DETROIT        CLOUDY    19  10  68 S14       30.05F WCI   6
FLINT          LGT SNOW  20  11  68 W12G20    29.99F WCI   8
GROSSE ILE     CLOUDY    19  10  68 SW10      30.05F WCI   8
HILLSDALE      CLOUDY    18   8  64 SW12      30.03S WCI   6
HOWELL         CLOUDY    19  12  72 SW12      29.99F HAZE    WCI   7

CITY           SKY/WX    TMP DP  RH WIND       PRES   REMARKS
JACKSON        CLOUDY    19   9  65 SW16      30.01F WCI   4
LAMBERTVILLE   CLOUDY    19   9  63 W12G17    30.08F WCI   7
LANSING        LGT SNOW  20  12  71 W15       30.01F WCI   6
LAPEER         CLOUDY    18  11  74 W10       29.98F WCI   6
MASON          LGT SNOW  19  12  73 W9        30.01S WCI   8
MONROE         CLOUDY    20  10  64 SW12      30.06F WCI   8
MT. CLEMENS    CLOUDY    19   9  65 SW14      30.01F WCI   6
PONTIAC        CLOUDY    18   9  68 SW9       29.98F WCI   7
PORT HOPE        N/A     19  12  74 W9        29.93F WCI   8
PORT HURON     CLOUDY    18  10  73 SW8       30.00F WCI   7
TRI CITIES     CLOUDY    21  11  65 W14       29.99F HAZE    WCI   8
MIDLAND        CLOUDY    20  10  63 W10       29.97F WCI   9
TROY           CLOUDY    20  11  68 SW9       30.03F WCI   9
SAGINAW HB     CLOUDY    21  18  86 W10       29.99S HAZE    WCI  10
$$
MIZ043>046-050>051-056>058-064>065-071>073-077>080-121600-
SOUTHWEST LOWER MICHIGAN

CITY           SKY/WX    TMP DP  RH WIND       PRES   REMARKS
BATTLE CREEK   LGT SNOW  19  12  74 SW12      30.03F WCI   7
BENTON HARBOR  LGT SNOW  23  15  71 W14       30.09S WCI  11
BIG RAPIDS     LGT SNOW  18  11  76 NW8G18    29.98R WCI   7
COLDWATER      CLOUDY    20  11  68 SW9       30.04F WCI   9
FREMONT        FLURRIES  19  10  66 NW13G18   30.02S WCI   6
HOLLAND        LGT SNOW  21  15  78 W14G22    30.05F VSB 1   WCI   8
GRAND RAPIDS   LGT SNOW  21  15  78 W13       30.02F VSB 1   WCI   9
IONIA          LGT SNOW  20  15  78 W8        30.00S WCI  11
KALAMAZOO      LGT SNOW  18  12  77 SW8       30.05F WCI   8
LUDINGTON      CLOUDY    18   6  61 NW13      30.04F WCI   4
MARSHALL       CLOUDY    19  10  68 SW13G20   30.03S WCI   6
MOUNT PLEASANT CLOUDY    21  12  67 W10       29.98S WCI  10
MUSKEGON       LGT SNOW  21  10  62 NW15G25   30.04F WCI   8
SOUTH HAVEN    LGT SNOW  23  17  78 W14       30.07S WCI  10
$$
MIZ016>042-121600-
NORTHERN LOWER MICHIGAN

CITY           SKY/WX    TMP DP  RH WIND       PRES   REMARKS
ALPENA         LGT SNOW  17  10  74 W7        29.89F WCI   8
BEAVER ISLAND  CLOUDY    17   8  69 NW15G28   29.93F WCI   2
BELLAIRE       FLURRIES  18   8  63 W8G17     29.95F WCI   8
CADILLAC       LGT SNOW  15   9  76 W13       29.92F WCI   2
CHARLEVOIX     CLOUDY    18   8  63 W22G33    29.95F WCI   1
FRANKFORT      CLOUDY    17   7  63 NW14G24   30.01S HAZE    WCI   3
GAYLORD        LGT SNOW  14   7  73 W14G22    29.86F VSB 1   WCI  -1
GRAYLING       SNOW      15  11  83 W9        29.90S VSB 1/2 WCI   3
HARBOR SPRINGS CLOUDY    17   7  64 W15G24    29.90F HAZE    WCI   2
HOUGHTON LAKE  CLOUDY    15   9  76 W14       29.92S WCI   0
MANISTEE       CLOUDY    18   3  53 NW17G26   30.02S WCI   2
OSCODA         LGT SNOW  18  10  70 W13G20    29.92S WCI   5
PELLSTON       CLOUDY    16   7  67 W20G36    29.90S WCI  -1
ROGERS CITY    SUNNY     17   7  64 W12G24    29.89S WCI   5
TRAVERSE CITY  LGT SNOW  18   6  59 NW16G25   29.97S WCI   3
$$
MIZ007>008-015-121600-
EASTERN UPPER MICHIGAN

CITY           SKY/WX    TMP DP  RH WIND       PRES   REMARKS
KINROSS        CLOUDY    10   7  85 N9        29.88S WCI  -2
MACKINAC ISLAN LGT SNOW  15  10  80 NW16G23   29.87S WCI  -1
NEWBERRY       LGT SNOW  12   9  86 N9        29.90R VSB 3/4 WCI   0
S. S. MARIE    CLOUDY    10  -2  58 N7        29.90R WCI  -1
MUNISING         N/A     12   6  77 N21G31    29.98R WCI  -7
$$
MIZ004>006-011>014-085-121600-
CENTRAL UPPER MICHIGAN

CITY           SKY/WX    TMP DP  RH WIND       PRES   REMARKS
MANISTIQUE     LGT SNOW  11   6  82 W12       29.95S WCI  -3
ESCANABA       CLOUDY    12   5  73 NW14      30.01S WCI  -3
MENOMINEE      SUNNY     12   0  57 NW12G18   30.05S WCI  -2
SAWYER-GWINN   LGT SNOW   7   1  78 N22G31    29.96R WCI -14
$$
MIZ001>003-009>011-084-121600-
WESTERN UPPER MICHIGAN

CITY           SKY/WX    TMP DP  RH WIND       PRES   REMARKS
IRON MOUNTAIN  SUNNY     11  -1  58 NW22G29   29.98S WCI  -8
HOUGHTON       HAZE       3  -6  66 N25G33    30.05R VSB 1/2 WCI -20
COPPER HARBOR    N/A      5   2  87 NE30G46   30.10R WCI -19
IRONWOOD       CLOUDY     3   0  85 NW20G25   30.11R VSB 3/4 WCI -18
$$

ABBREVIATIONS USED IN REMARKS
   TC - TEMPERATURE IN CELSIUS
  WCI - WIND CHILL INDEX
   HX - HEAT INDEX
  VSB - VISIBILITY




USA.gov is the U.S. government's official web portal to all federal, state and local government web resources and services.